Time,TemperatureF,DewpointF,PressureIn,WindDirection,WindDirectionDegrees,WindSpeedMPH,WindSpeedGustMPH,Humidity,HourlyPrecipIn,Conditions,Clouds,dailyrainin,SoftwareType,DateUTC
2013-06-02 00:01:00,75.1,68.5,30.12,SSW,213,7.0,9.0,80,0.00,,SKC,0.00,VWS V13.00,2013-06-02 04:01:00,
2013-06-02 00:06:00,75.1,68.5,30.12,WSW,248,3.0,8.0,80,0.00,,SKC,0.00,VWS V13.00,2013-06-02 04:06:00,
2013-06-02 00:11:00,75.1,68.5,30.12,WSW,241,4.0,10.0,80,0.00,,SKC,0.00,VWS V13.00,2013-06-02 04:11:00,
2013-06-02 00:16:00,75.1,68.5,30.13,SW,219,10.0,10.0,80,0.00,,SKC,0.00,VWS V13.00,2013-06-02 04:16:00,
2013-06-02 00:21:00,75.0,68.4,30.13,SW,223,2.0,10.0,80,0.00,,SKC,0.00,VWS V13.00,2013-06-02 04:21:00,
2013-06-02 00:26:00,74.9,68.3,30.13,SW,235,3.0,8.0,80,0.00,,SKC,0.00,VWS V13.00,2013-06-02 04:26:00,
2013-06-02 00:31:00,75.0,68.4,30.13,SW,221,4.0,10.0,80,0.00,,SKC,0.00,VWS V13.00,2013-06-02 04:31:00,
2013-06-02 00:36:00,75.0,68.4,30.13,SW,223,7.0,12.0,80,0.00,,SKC,0.00,VWS V13.00,2013-06-02 04:36:00,
2013-06-02 00:41:00,75.0,68.4,30.12,SW,216,10.0,11.0,80,0.00,,SKC,0.00,VWS V13.00,2013-06-02 04:41:00,
2013-06-02 00:46:00,75.0,68.4,30.12,South,190,6.0,11.0,80,0.00,,SKC,0.00,VWS V13.00,2013-06-02 04:46:00,
2013-06-02 00:51:00,75.0,68.4,30.12,SSW,213,4.0,10.0,80,0.00,,SKC,0.00,VWS V13.00,2013-06-02 04:51:00,
2013-06-02 00:56:00,75.0,68.4,30.12,SW,223,8.0,11.0,80,0.00,,SKC,0.00,VWS V13.00,2013-06-02 04:56:00,
2013-06-02 01:01:00,74.9,68.3,30.12,WSW,240,8.0,9.0,80,0.00,,SKC,0.00,VWS V13.00,2013-06-02 05:01:00,
2013-06-02 01:06:00,74.9,68.3,30.12,SSW,209,3.0,11.0,80,0.00,,SKC,0.00,VWS V13.00,2013-06-02 05:06:00,
2013-06-02 01:11:00,74.9,68.3,30.12,WSW,250,6.0,11.0,80,0.00,,SKC,0.00,VWS V13.00,2013-06-02 05:11:00,
2013-06-02 01:16:00,74.8,68.2,30.12,SSW,202,5.0,10.0,80,0.00,,SKC,0.00,VWS V13.00,2013-06-02 05:16:00,
2013-06-02 01:21:00,74.8,68.2,30.11,South,180,2.0,10.0,80,0.00,,SKC,0.00,VWS V13.00,2013-06-02 05:21:00,
2013-06-02 01:26:00,74.8,68.2,30.11,SSW,211,10.0,11.0,80,0.00,,SKC,0.00,VWS V13.00,2013-06-02 05:26:00,
2013-06-02 01:31:00,74.7,68.1,30.11,SSW,195,0.0,11.0,80,0.00,,SKC,0.00,VWS V13.00,2013-06-02 05:31:00,
2013-06-02 01:36:00,74.7,68.1,30.11,SW,229,3.0,11.0,80,0.00,,SKC,0.00,VWS V13.00,2013-06-02 05:36:00,
2013-06-02 01:41:00,74.7,68.1,30.10,SSW,208,3.0,11.0,80,0.00,,SKC,0.00,VWS V13.00,2013-06-02 05:41:00,
2013-06-02 01:46:00,74.7,68.1,30.10,SSW,208,7.0,13.0,80,0.00,,SKC,0.00,VWS V13.00,2013-06-02 05:46:00,
2013-06-02 01:51:00,74.6,68.0,30.11,SSW,196,8.0,12.0,80,0.00,,SKC,0.00,VWS V13.00,2013-06-02 05:51:00,
2013-06-02 01:56:00,74.6,68.0,30.10,SW,219,9.0,12.0,80,0.00,,SKC,0.00,VWS V13.00,2013-06-02 05:56:00,
2013-06-02 02:01:00,74.7,68.1,30.10,SSW,205,10.0,12.0,80,0.00,,SKC,0.00,VWS V13.00,2013-06-02 06:01:00,
2013-06-02 02:06:00,74.7,68.1,30.10,SW,225,2.0,11.0,80,0.00,,SKC,0.00,VWS V13.00,2013-06-02 06:06:00,
2013-06-02 02:11:00,74.7,68.1,30.10,SW,236,8.0,8.0,80,0.00,,SKC,0.00,VWS V13.00,2013-06-02 06:11:00,
2013-06-02 02:16:00,74.7,68.1,30.10,SSW,198,5.0,9.0,80,0.00,,SKC,0.00,VWS V13.00,2013-06-02 06:16:00,
2013-06-02 02:21:00,74.7,68.5,30.10,South,174,10.0,11.0,81,0.00,,SKC,0.00,VWS V13.00,2013-06-02 06:21:00,
2013-06-02 02:26:00,74.6,68.4,30.10,SSW,212,9.0,12.0,81,0.00,,SKC,0.00,VWS V13.00,2013-06-02 06:26:00,
2013-06-02 02:31:00,74.6,68.4,30.10,SW,227,4.0,13.0,81,0.00,,SKC,0.00,VWS V13.00,2013-06-02 06:31:00,
2013-06-02 02:36:00,74.7,68.5,30.09,SW,227,7.0,10.0,81,0.00,,SKC,0.00,VWS V13.00,2013-06-02 06:36:00,
2013-06-02 02:41:00,74.6,68.4,30.09,South,185,4.0,11.0,81,0.00,,SKC,0.00,VWS V13.00,2013-06-02 06:41:00,
2013-06-02 02:46:00,74.6,68.4,30.09,SW,214,7.0,10.0,81,0.00,,SKC,0.00,VWS V13.00,2013-06-02 06:46:00,
2013-06-02 02:51:00,74.6,68.4,30.08,SSW,205,7.0,10.0,81,0.00,,SKC,0.00,VWS V13.00,2013-06-02 06:51:00,
2013-06-02 02:56:00,74.6,68.4,30.08,SW,224,4.0,11.0,81,0.00,,SKC,0.00,VWS V13.00,2013-06-02 06:56:00,
2013-06-02 03:01:00,74.6,68.4,30.09,SSW,207,7.0,10.0,81,0.00,,SKC,0.00,VWS V13.00,2013-06-02 07:01:00,
2013-06-02 03:06:00,74.5,68.3,30.08,SW,217,0.0,10.0,81,0.00,,SKC,0.00,VWS V13.00,2013-06-02 07:06:00,
2013-06-02 03:11:00,74.5,68.3,30.08,SW,220,6.0,11.0,81,0.00,,SKC,0.00,VWS V13.00,2013-06-02 07:11:00,
2013-06-02 03:16:00,74.5,68.3,30.08,SW,214,3.0,8.0,81,0.00,,SKC,0.00,VWS V13.00,2013-06-02 07:16:00,
2013-06-02 03:21:00,74.5,68.3,30.08,SSW,207,6.0,10.0,81,0.00,,SKC,0.00,VWS V13.00,2013-06-02 07:21:00,
2013-06-02 03:26:00,74.5,68.3,30.08,WSW,238,7.0,11.0,81,0.00,,SKC,0.00,VWS V13.00,2013-06-02 07:26:00,
2013-06-02 03:31:00,74.5,68.3,30.08,WSW,248,4.0,10.0,81,0.00,,SKC,0.00,VWS V13.00,2013-06-02 07:31:00,
2013-06-02 03:36:00,74.5,68.3,30.08,SW,219,5.0,11.0,81,0.00,,SKC,0.00,VWS V13.00,2013-06-02 07:36:00,
2013-06-02 03:41:00,74.5,68.3,30.08,WSW,242,4.0,11.0,81,0.00,,SKC,0.00,VWS V13.00,2013-06-02 07:41:00,
2013-06-02 03:46:00,74.4,68.2,30.07,SW,223,8.0,10.0,81,0.00,,SKC,0.00,VWS V13.00,2013-06-02 07:46:00,
2013-06-02 03:51:00,74.4,68.2,30.07,SSW,211,6.0,10.0,81,0.00,,SKC,0.00,VWS V13.00,2013-06-02 07:51:00,
2013-06-02 03:56:00,74.4,68.2,30.07,SSW,207,7.0,8.0,81,0.00,,SKC,0.00,VWS V13.00,2013-06-02 07:56:00,
2013-06-02 04:01:00,74.3,68.1,30.07,SW,227,2.0,9.0,81,0.00,,SKC,0.00,VWS V13.00,2013-06-02 08:01:00,
2013-06-02 04:06:00,74.4,68.2,30.07,SSW,210,3.0,11.0,81,0.00,,SKC,0.00,VWS V13.00,2013-06-02 08:06:00,
2013-06-02 04:11:00,74.3,68.1,30.07,SSW,211,7.0,10.0,81,0.00,,SKC,0.00,VWS V13.00,2013-06-02 08:11:00,
2013-06-02 04:16:00,74.3,68.1,30.07,SW,223,4.0,10.0,81,0.00,,SKC,0.00,VWS V13.00,2013-06-02 08:16:00,
2013-06-02 04:21:00,74.3,68.1,30.06,SSW,211,5.0,12.0,81,0.00,,SKC,0.00,VWS V13.00,2013-06-02 08:21:00,
2013-06-02 04:26:00,74.3,68.1,30.06,SSW,205,7.0,7.0,81,0.00,,SKC,0.00,VWS V13.00,2013-06-02 08:26:00,
2013-06-02 04:31:00,74.2,68.0,30.06,WSW,252,4.0,12.0,81,0.00,,SKC,0.00,VWS V13.00,2013-06-02 08:31:00,
2013-06-02 04:36:00,74.2,68.0,30.06,WSW,237,6.0,9.0,81,0.00,,SKC,0.00,VWS V13.00,2013-06-02 08:36:00,
2013-06-02 04:41:00,74.1,67.9,30.05,SSW,209,7.0,10.0,81,0.00,,SKC,0.00,VWS V13.00,2013-06-02 08:41:00,
2013-06-02 04:46:00,74.1,67.9,30.05,SSW,211,4.0,11.0,81,0.00,,SKC,0.00,VWS V13.00,2013-06-02 08:46:00,
2013-06-02 04:51:00,74.1,67.9,30.05,SW,216,4.0,10.0,81,0.00,,SKC,0.00,VWS V13.00,2013-06-02 08:51:00,
2013-06-02 04:56:00,74.0,67.8,30.05,SSW,192,4.0,11.0,81,0.00,,SKC,0.00,VWS V13.00,2013-06-02 08:56:00,
2013-06-02 05:01:00,74.0,67.8,30.04,SW,233,6.0,9.0,81,0.00,,SKC,0.00,VWS V13.00,2013-06-02 09:01:00,
2013-06-02 05:06:00,74.0,67.8,30.04,SW,232,6.0,10.0,81,0.00,,SKC,0.00,VWS V13.00,2013-06-02 09:06:00,
2013-06-02 05:11:00,73.9,67.7,30.04,SSW,194,4.0,10.0,81,0.00,,SKC,0.00,VWS V13.00,2013-06-02 09:11:00,
2013-06-02 05:16:00,73.9,67.7,30.04,SW,229,6.0,10.0,81,0.00,,SKC,0.00,VWS V13.00,2013-06-02 09:16:00,
2013-06-02 05:21:00,73.9,67.7,30.05,SW,215,7.0,9.0,81,0.00,,SKC,0.00,VWS V13.00,2013-06-02 09:21:00,
2013-06-02 05:26:00,73.9,67.7,30.05,South,178,9.0,11.0,81,0.00,,SKC,0.00,VWS V13.00,2013-06-02 09:26:00,
2013-06-02 05:31:00,73.9,67.7,30.05,SSW,202,6.0,9.0,81,0.00,,SKC,0.00,VWS V13.00,2013-06-02 09:31:00,
2013-06-02 05:36:00,73.9,67.7,30.05,SSW,202,4.0,10.0,81,0.00,,SKC,0.00,VWS V13.00,2013-06-02 09:36:00,
2013-06-02 05:42:00,73.9,67.7,30.05,South,170,8.0,10.0,81,0.00,,SKC,0.00,VWS V13.00,2013-06-02 09:42:00,
2013-06-02 05:47:00,73.9,67.7,30.05,SW,228,5.0,6.0,81,0.00,,SKC,0.00,VWS V13.00,2013-06-02 09:47:00,
2013-06-02 05:52:00,74.0,67.8,30.06,SW,226,6.0,6.0,81,0.00,,SKC,0.00,VWS V13.00,2013-06-02 09:52:00,
2013-06-02 05:57:00,74.0,67.8,30.06,SW,221,4.0,4.0,81,0.00,,SKC,0.00,VWS V13.00,2013-06-02 09:57:00,
2013-06-02 06:02:00,74.0,67.8,30.06,SW,223,5.0,5.0,81,0.00,,SKC,0.00,VWS V13.00,2013-06-02 10:02:00,
2013-06-02 06:07:00,74.0,67.8,30.06,South,178,4.0,4.0,81,0.00,,SKC,0.00,VWS V13.00,2013-06-02 10:07:00,
2013-06-02 06:12:00,73.9,67.7,30.05,SW,223,7.0,7.0,81,0.00,,SKC,0.00,VWS V13.00,2013-06-02 10:12:00,
2013-06-02 06:17:00,73.8,67.6,30.05,SW,224,5.0,5.0,81,0.00,,SKC,0.00,VWS V13.00,2013-06-02 10:17:00,
2013-06-02 06:22:00,73.8,67.6,30.05,SW,218,4.0,4.0,81,0.00,,SKC,0.00,VWS V13.00,2013-06-02 10:22:00,
2013-06-02 06:27:00,73.8,67.6,30.05,SSW,196,4.0,9.0,81,0.00,,SKC,0.00,VWS V13.00,2013-06-02 10:27:00,
2013-06-02 06:32:00,73.9,67.7,30.05,WSW,251,4.0,9.0,81,0.00,,SKC,0.00,VWS V13.00,2013-06-02 10:32:00,
2013-06-02 06:37:00,74.0,67.8,30.05,SSW,207,4.0,4.0,81,0.00,,SKC,0.00,VWS V13.00,2013-06-02 10:37:00,
2013-06-02 06:42:00,74.0,67.8,30.06,SSW,205,4.0,4.0,81,0.00,,SKC,0.00,VWS V13.00,2013-06-02 10:42:00,
2013-06-02 06:47:00,74.1,67.9,30.06,SW,214,6.0,8.0,81,0.00,,SKC,0.00,VWS V13.00,2013-06-02 10:47:00,
2013-06-02 06:52:00,74.2,68.0,30.06,SSW,207,6.0,9.0,81,0.00,,SKC,0.00,VWS V13.00,2013-06-02 10:52:00,
2013-06-02 06:57:00,74.3,68.1,30.06,SW,236,3.0,11.0,81,0.00,,SKC,0.00,VWS V13.00,2013-06-02 10:57:00,
2013-06-02 07:02:00,74.4,68.2,30.07,SSW,203,5.0,9.0,81,0.00,,SKC,0.00,VWS V13.00,2013-06-02 11:02:00,
2013-06-02 07:07:00,74.6,68.4,30.07,SW,217,3.0,7.0,81,0.00,,SKC,0.00,VWS V13.00,2013-06-02 11:07:00,
2013-06-02 07:12:00,74.8,68.6,30.07,SW,234,2.0,7.0,81,0.00,,SKC,0.00,VWS V13.00,2013-06-02 11:12:00,
2013-06-02 07:17:00,74.9,68.7,30.07,SSW,212,5.0,8.0,81,0.00,,SKC,0.00,VWS V13.00,2013-06-02 11:17:00,
2013-06-02 07:22:00,75.0,68.8,30.07,South,178,4.0,7.0,81,0.00,,SKC,0.00,VWS V13.00,2013-06-02 11:22:00,
2013-06-02 07:27:00,75.2,69.0,30.07,SSW,198,6.0,8.0,81,0.00,,SKC,0.00,VWS V13.00,2013-06-02 11:27:00,
2013-06-02 07:32:00,75.3,69.1,30.07,SSW,209,6.0,6.0,81,0.00,,SKC,0.00,VWS V13.00,2013-06-02 11:32:00,
2013-06-02 07:37:00,75.4,69.5,30.07,South,169,7.0,7.0,82,0.00,,SKC,0.00,VWS V13.00,2013-06-02 11:37:00,
2013-06-02 07:42:00,75.5,69.6,30.07,SSW,204,3.0,7.0,82,0.00,,SKC,0.00,VWS V13.00,2013-06-02 11:42:00,
2013-06-02 07:47:00,75.6,69.4,30.07,SW,229,6.0,7.0,81,0.00,,SKC,0.00,VWS V13.00,2013-06-02 11:47:00,
2013-06-02 07:52:00,75.7,69.5,30.07,SSW,193,5.0,7.0,81,0.00,,SKC,0.00,VWS V13.00,2013-06-02 11:52:00,
2013-06-02 07:57:00,75.8,69.6,30.07,SSW,199,4.0,6.0,81,0.00,,SKC,0.00,VWS V13.00,2013-06-02 11:57:00,
2013-06-02 08:02:00,75.8,69.6,30.07,WSW,242,2.0,3.0,81,0.00,,SKC,0.00,VWS V13.00,2013-06-02 12:02:00,
2013-06-02 08:07:00,76.0,69.8,30.07,SW,220,2.0,4.0,81,0.00,,SKC,0.00,VWS V13.00,2013-06-02 12:07:00,
2013-06-02 08:12:00,76.1,69.8,30.08,SSE,156,2.0,8.0,81,0.00,,SKC,0.00,VWS V13.00,2013-06-02 12:12:00,
2013-06-02 08:17:00,76.3,70.1,30.08,SSW,213,4.0,7.0,81,0.00,,SKC,0.00,VWS V13.00,2013-06-02 12:17:00,
2013-06-02 08:22:00,76.5,70.2,30.08,SSW,213,2.0,5.0,81,0.00,,SKC,0.00,VWS V13.00,2013-06-02 12:22:00,
2013-06-02 08:27:00,76.6,70.3,30.08,SSW,210,4.0,4.0,81,0.00,,SKC,0.00,VWS V13.00,2013-06-02 12:27:00,
2013-06-02 08:32:00,76.7,70.4,30.08,SW,232,9.0,9.0,81,0.00,,SKC,0.00,VWS V13.00,2013-06-02 12:32:00,
2013-06-02 08:37:00,76.8,70.5,30.08,SW,234,5.0,6.0,81,0.00,,SKC,0.00,VWS V13.00,2013-06-02 12:37:00,
2013-06-02 08:42:00,77.0,70.7,30.09,South,180,0.0,4.0,81,0.00,,SKC,0.00,VWS V13.00,2013-06-02 12:42:00,
2013-06-02 08:47:00,77.2,70.9,30.08,SW,215,1.0,6.0,81,0.00,,SKC,0.00,VWS V13.00,2013-06-02 12:47:00,
2013-06-02 08:52:00,77.4,71.1,30.08,South,181,2.0,5.0,81,0.00,,SKC,0.00,VWS V13.00,2013-06-02 12:52:00,
2013-06-02 08:57:00,77.5,71.2,30.08,SSW,196,4.0,5.0,81,0.00,,SKC,0.00,VWS V13.00,2013-06-02 12:57:00,
2013-06-02 09:02:00,77.8,71.5,30.08,SSW,207,4.0,7.0,81,0.00,,SKC,0.00,VWS V13.00,2013-06-02 13:02:00,
2013-06-02 09:07:00,78.0,71.7,30.08,SSW,213,3.0,7.0,81,0.00,,SKC,0.00,VWS V13.00,2013-06-02 13:07:00,
2013-06-02 09:12:00,78.2,71.9,30.08,SSW,208,5.0,5.0,81,0.00,,SKC,0.00,VWS V13.00,2013-06-02 13:12:00,
2013-06-02 09:17:00,78.2,71.9,30.08,SSW,193,5.0,9.0,81,0.00,,SKC,0.00,VWS V13.00,2013-06-02 13:17:00,
2013-06-02 09:22:00,78.0,71.3,30.08,SSW,198,5.0,9.0,80,0.00,,SKC,0.00,VWS V13.00,2013-06-02 13:22:00,
2013-06-02 09:27:00,78.1,71.4,30.08,SSW,198,4.0,6.0,80,0.00,,SKC,0.00,VWS V13.00,2013-06-02 13:27:00,
2013-06-02 09:32:00,78.0,71.3,30.08,South,183,9.0,10.0,80,0.00,,SKC,0.00,VWS V13.00,2013-06-02 13:32:00,
2013-06-02 09:37:00,78.1,71.4,30.08,SSW,202,0.0,3.0,80,0.00,,SKC,0.00,VWS V13.00,2013-06-02 13:37:00,
2013-06-02 09:42:00,78.2,71.5,30.08,SSW,196,10.0,10.0,80,0.00,,SKC,0.00,VWS V13.00,2013-06-02 13:42:00,
2013-06-02 09:47:00,78.4,71.7,30.08,SW,236,5.0,8.0,80,0.00,,SKC,0.00,VWS V13.00,2013-06-02 13:47:00,
2013-06-02 09:52:00,78.7,72.0,30.08,SSW,205,7.0,7.0,80,0.00,,SKC,0.00,VWS V13.00,2013-06-02 13:52:00,
2013-06-02 09:57:00,78.7,72.0,30.08,SSW,197,8.0,8.0,80,0.00,,SKC,0.00,VWS V13.00,2013-06-02 13:57:00,
2013-06-02 10:02:00,78.8,72.1,30.08,WSW,248,9.0,10.0,80,0.00,,SKC,0.00,VWS V13.00,2013-06-02 14:02:00,
2013-06-02 10:07:00,78.8,72.1,30.08,SW,232,5.0,9.0,80,0.00,,SKC,0.00,VWS V13.00,2013-06-02 14:07:00,
2013-06-02 10:12:00,79.1,72.4,30.08,WSW,240,3.0,8.0,80,0.00,,SKC,0.00,VWS V13.00,2013-06-02 14:12:00,
2013-06-02 10:17:00,79.3,72.6,30.08,SSW,210,7.0,9.0,80,0.00,,SKC,0.00,VWS V13.00,2013-06-02 14:17:00,
2013-06-02 10:22:00,79.4,72.7,30.08,South,190,5.0,6.0,80,0.00,,SKC,0.00,VWS V13.00,2013-06-02 14:22:00,
2013-06-02 10:27:00,79.5,72.8,30.08,SSW,194,6.0,6.0,80,0.00,,SKC,0.00,VWS V13.00,2013-06-02 14:27:00,
2013-06-02 10:32:00,79.5,72.8,30.08,SSW,196,2.0,2.0,80,0.00,,SKC,0.00,VWS V13.00,2013-06-02 14:32:00,
2013-06-02 10:37:00,79.8,73.1,30.08,South,178,4.0,5.0,80,0.00,,SKC,0.00,VWS V13.00,2013-06-02 14:37:00,
2013-06-02 10:42:00,80.2,73.5,30.08,WSW,238,3.0,6.0,80,0.00,,SKC,0.00,VWS V13.00,2013-06-02 14:42:00,
2013-06-02 10:47:00,80.5,73.4,30.08,SSW,206,5.0,8.0,79,0.00,,SKC,0.00,VWS V13.00,2013-06-02 14:47:00,
2013-06-02 10:52:00,80.6,73.5,30.08,South,184,4.0,7.0,79,0.00,,SKC,0.00,VWS V13.00,2013-06-02 14:52:00,
2013-06-02 10:57:00,80.9,73.8,30.08,SSW,200,5.0,7.0,79,0.00,,SKC,0.00,VWS V13.00,2013-06-02 14:57:00,
2013-06-02 11:02:00,80.8,73.7,30.08,SSW,202,4.0,11.0,79,0.00,,SKC,0.00,VWS V13.00,2013-06-02 15:02:00,
2013-06-02 11:07:00,80.6,73.5,30.08,SSE,165,2.0,5.0,79,0.00,,SKC,0.00,VWS V13.00,2013-06-02 15:07:00,
2013-06-02 11:12:00,80.7,73.6,30.09,South,182,4.0,5.0,79,0.00,,SKC,0.00,VWS V13.00,2013-06-02 15:12:00,
2013-06-02 11:17:00,81.0,73.9,30.08,SSW,199,3.0,5.0,79,0.00,,SKC,0.00,VWS V13.00,2013-06-02 15:17:00,
2013-06-02 11:22:00,81.2,74.1,30.08,SSW,192,8.0,9.0,79,0.00,,SKC,0.00,VWS V13.00,2013-06-02 15:22:00,
2013-06-02 11:27:00,81.1,74.0,30.08,SW,226,5.0,9.0,79,0.00,,SKC,0.00,VWS V13.00,2013-06-02 15:27:00,
2013-06-02 11:32:00,80.9,73.4,30.09,SW,222,4.0,10.0,78,0.00,,SKC,0.00,VWS V13.00,2013-06-02 15:32:00,
2013-06-02 11:37:00,80.9,73.8,30.09,SSW,205,8.0,8.0,79,0.00,,SKC,0.00,VWS V13.00,2013-06-02 15:37:00,
2013-06-02 11:42:00,80.8,73.7,30.09,South,177,7.0,9.0,79,0.00,,SKC,0.00,VWS V13.00,2013-06-02 15:42:00,
2013-06-02 11:47:00,80.9,73.4,30.09,SW,226,3.0,12.0,78,0.00,,SKC,0.00,VWS V13.00,2013-06-02 15:47:00,
2013-06-02 11:52:00,81.0,73.5,30.09,SSE,162,7.0,10.0,78,0.00,,SKC,0.00,VWS V13.00,2013-06-02 15:52:00,
2013-06-02 11:57:00,81.1,73.6,30.09,SSW,199,8.0,11.0,78,0.00,,SKC,0.00,VWS V13.00,2013-06-02 15:57:00,
2013-06-02 12:02:00,81.1,73.6,30.09,South,188,6.0,6.0,78,0.00,,SKC,0.00,VWS V13.00,2013-06-02 16:02:00,
2013-06-02 12:07:00,81.0,73.5,30.09,SSW,207,4.0,10.0,78,0.00,,SKC,0.00,VWS V13.00,2013-06-02 16:07:00,
2013-06-02 12:12:00,81.2,73.7,30.09,South,182,5.0,10.0,78,0.00,,SKC,0.00,VWS V13.00,2013-06-02 16:12:00,
2013-06-02 12:17:00,81.3,73.8,30.08,South,188,6.0,6.0,78,0.00,,SKC,0.00,VWS V13.00,2013-06-02 16:17:00,
2013-06-02 12:22:00,81.2,73.7,30.08,SSW,203,5.0,8.0,78,0.00,,SKC,0.00,VWS V13.00,2013-06-02 16:22:00,
2013-06-02 12:27:00,81.4,73.9,30.08,SSW,199,7.0,7.0,78,0.00,,SKC,0.00,VWS V13.00,2013-06-02 16:27:00,
2013-06-02 12:33:00,81.7,74.2,30.08,SSW,200,4.0,9.0,78,0.00,,SKC,0.00,VWS V13.00,2013-06-02 16:33:00,
2013-06-02 12:38:00,82.0,74.5,30.08,South,184,4.0,7.0,78,0.00,,SKC,0.00,VWS V13.00,2013-06-02 16:38:00,
2013-06-02 12:43:00,82.0,74.5,30.08,SW,230,5.0,7.0,78,0.00,,SKC,0.00,VWS V13.00,2013-06-02 16:43:00,
2013-06-02 12:48:00,82.1,74.2,30.08,SSE,150,7.0,12.0,77,0.00,,SKC,0.00,VWS V13.00,2013-06-02 16:48:00,
2013-06-02 12:53:00,82.1,74.2,30.08,South,173,13.0,13.0,77,0.00,,SKC,0.00,VWS V13.00,2013-06-02 16:53:00,
2013-06-02 12:58:00,81.9,74.0,30.08,South,181,1.0,9.0,77,0.00,,SKC,0.00,VWS V13.00,2013-06-02 16:58:00,
2013-06-02 13:03:00,81.9,74.0,30.08,SSE,164,4.0,8.0,77,0.00,,SKC,0.00,VWS V13.00,2013-06-02 17:03:00,
2013-06-02 13:08:00,81.9,74.0,30.08,SSW,195,7.0,11.0,77,0.00,,SKC,0.00,VWS V13.00,2013-06-02 17:08:00,
2013-06-02 13:13:00,81.8,73.9,30.08,SE,128,5.0,8.0,77,0.00,,SKC,0.00,VWS V13.00,2013-06-02 17:13:00,
2013-06-02 13:18:00,82.0,74.1,30.08,SSW,210,8.0,11.0,77,0.00,,SKC,0.00,VWS V13.00,2013-06-02 17:18:00,
2013-06-02 13:23:00,81.8,73.9,30.08,SSW,207,8.0,14.0,77,0.00,,SKC,0.00,VWS V13.00,2013-06-02 17:23:00,
2013-06-02 13:28:00,81.9,74.0,30.08,South,171,8.0,14.0,77,0.00,,SKC,0.00,VWS V13.00,2013-06-02 17:28:00,
2013-06-02 13:33:00,82.0,74.1,30.08,SSE,165,2.0,12.0,77,0.00,,SKC,0.00,VWS V13.00,2013-06-02 17:33:00,
2013-06-02 13:38:00,82.1,74.2,30.07,South,175,5.0,9.0,77,0.00,,SKC,0.00,VWS V13.00,2013-06-02 17:38:00,
2013-06-02 13:43:00,82.1,74.2,30.07,SSW,195,16.0,16.0,77,0.00,,SKC,0.00,VWS V13.00,2013-06-02 17:43:00,
2013-06-02 13:48:00,82.1,74.2,30.07,SSW,200,5.0,12.0,77,0.00,,SKC,0.00,VWS V13.00,2013-06-02 17:48:00,
2013-06-02 13:53:00,82.1,74.2,30.07,South,176,2.0,12.0,77,0.00,,SKC,0.00,VWS V13.00,2013-06-02 17:53:00,
2013-06-02 13:58:00,82.1,73.8,30.07,SSW,207,12.0,13.0,76,0.00,,SKC,0.00,VWS V13.00,2013-06-02 17:58:00,
2013-06-02 14:03:00,82.1,73.8,30.07,SSW,192,5.0,11.0,76,0.00,,SKC,0.00,VWS V13.00,2013-06-02 18:03:00,
2013-06-02 14:08:00,82.1,73.8,30.07,South,181,7.0,16.0,76,0.00,,SKC,0.00,VWS V13.00,2013-06-02 18:08:00,
2013-06-02 14:13:00,81.9,73.6,30.07,SSW,193,10.0,13.0,76,0.00,,SKC,0.00,VWS V13.00,2013-06-02 18:13:00,
2013-06-02 14:18:00,81.8,73.5,30.07,SSW,194,8.0,13.0,76,0.00,,SKC,0.00,VWS V13.00,2013-06-02 18:18:00,
2013-06-02 14:23:00,81.7,73.4,30.07,SSW,194,11.0,13.0,76,0.00,,SKC,0.00,VWS V13.00,2013-06-02 18:23:00,
2013-06-02 14:28:00,81.8,73.5,30.07,South,184,13.0,13.0,76,0.00,,SKC,0.00,VWS V13.00,2013-06-02 18:28:00,
2013-06-02 14:33:00,81.8,73.5,30.06,South,181,10.0,13.0,76,0.00,,SKC,0.00,VWS V13.00,2013-06-02 18:33:00,
2013-06-02 14:38:00,81.7,73.4,30.06,SSW,200,4.0,13.0,76,0.00,,SKC,0.00,VWS V13.00,2013-06-02 18:38:00,
2013-06-02 14:43:00,81.8,73.5,30.06,SSE,168,12.0,12.0,76,0.00,,SKC,0.00,VWS V13.00,2013-06-02 18:43:00,
2013-06-02 14:48:00,82.0,73.7,30.06,SSE,163,7.0,14.0,76,0.00,,SKC,0.00,VWS V13.00,2013-06-02 18:48:00,
2013-06-02 14:53:00,82.1,73.8,30.06,South,185,7.0,12.0,76,0.00,,SKC,0.00,VWS V13.00,2013-06-02 18:53:00,
2013-06-02 14:58:00,82.2,73.9,30.06,SSE,164,10.0,13.0,76,0.00,,SKC,0.00,VWS V13.00,2013-06-02 18:58:00,
2013-06-02 15:04:00,82.2,73.9,30.05,SSE,167,5.0,15.0,76,0.00,,SKC,0.00,VWS V13.00,2013-06-02 19:04:00,
2013-06-02 15:09:00,82.1,73.8,30.05,South,186,9.0,12.0,76,0.00,,SKC,0.00,VWS V13.00,2013-06-02 19:09:00,
2013-06-02 15:14:00,82.0,73.7,30.05,SSW,212,4.0,13.0,76,0.00,,SKC,0.00,VWS V13.00,2013-06-02 19:14:00,
2013-06-02 15:19:00,81.9,73.6,30.05,South,187,9.0,14.0,76,0.00,,SKC,0.00,VWS V13.00,2013-06-02 19:19:00,
2013-06-02 15:24:00,81.7,73.4,30.05,South,188,10.0,12.0,76,0.00,,SKC,0.00,VWS V13.00,2013-06-02 19:24:00,
2013-06-02 15:29:00,81.8,73.5,30.05,SW,215,9.0,11.0,76,0.00,,SKC,0.00,VWS V13.00,2013-06-02 19:29:00,
2013-06-02 15:34:00,81.8,73.5,30.04,SW,236,8.0,12.0,76,0.00,,SKC,0.00,VWS V13.00,2013-06-02 19:34:00,
2013-06-02 15:39:00,81.8,73.5,30.04,SSE,155,4.0,12.0,76,0.00,,SKC,0.00,VWS V13.00,2013-06-02 19:39:00,
2013-06-02 15:44:00,81.8,73.5,30.04,SSW,192,8.0,12.0,76,0.00,,SKC,0.00,VWS V13.00,2013-06-02 19:44:00,
2013-06-02 15:49:00,81.8,73.5,30.04,SW,225,6.0,12.0,76,0.00,,SKC,0.00,VWS V13.00,2013-06-02 19:49:00,
2013-06-02 15:54:00,81.6,73.3,30.04,South,180,8.0,10.0,76,0.00,,SKC,0.00,VWS V13.00,2013-06-02 19:54:00,
2013-06-02 15:59:00,81.4,73.1,30.04,South,169,5.0,12.0,76,0.00,,SKC,0.00,VWS V13.00,2013-06-02 19:59:00,
2013-06-02 16:04:00,81.4,73.1,30.03,SW,219,2.0,12.0,76,0.00,,SKC,0.00,VWS V13.00,2013-06-02 20:04:00,
2013-06-02 16:09:00,81.3,73.0,30.03,WSW,250,0.0,14.0,76,0.00,,SKC,0.00,VWS V13.00,2013-06-02 20:09:00,
2013-06-02 16:14:00,81.3,73.0,30.03,South,178,9.0,13.0,76,0.00,,SKC,0.00,VWS V13.00,2013-06-02 20:14:00,
2013-06-02 16:19:00,81.2,72.9,30.03,South,184,7.0,11.0,76,0.00,,SKC,0.00,VWS V13.00,2013-06-02 20:19:00,
2013-06-02 16:24:00,81.1,72.8,30.03,ESE,123,5.0,11.0,76,0.00,,SKC,0.00,VWS V13.00,2013-06-02 20:24:00,
2013-06-02 16:29:00,81.1,72.8,30.03,South,171,4.0,13.0,76,0.00,,SKC,0.00,VWS V13.00,2013-06-02 20:29:00,
2013-06-02 16:34:00,81.1,72.8,30.03,West,271,6.0,13.0,76,0.00,,SKC,0.00,VWS V13.00,2013-06-02 20:34:00,
2013-06-02 16:39:00,81.2,72.9,30.03,SSW,200,10.0,13.0,76,0.00,,SKC,0.00,VWS V13.00,2013-06-02 20:39:00,
2013-06-02 16:44:00,81.2,72.9,30.03,SSE,159,2.0,13.0,76,0.00,,SKC,0.00,VWS V13.00,2013-06-02 20:44:00,
2013-06-02 16:49:00,81.1,72.8,30.02,South,190,1.0,11.0,76,0.00,,SKC,0.00,VWS V13.00,2013-06-02 20:49:00,
2013-06-02 16:54:00,81.2,72.9,30.02,SE,132,7.0,11.0,76,0.00,,SKC,0.00,VWS V13.00,2013-06-02 20:54:00,
2013-06-02 16:59:00,81.1,72.8,30.02,SSE,164,6.0,12.0,76,0.00,,SKC,0.00,VWS V13.00,2013-06-02 20:59:00,
2013-06-02 17:04:00,80.8,72.5,30.02,South,179,12.0,12.0,76,0.00,,SKC,0.00,VWS V13.00,2013-06-02 21:04:00,
2013-06-02 17:09:00,80.7,72.4,30.02,SE,141,8.0,12.0,76,0.00,,SKC,0.00,VWS V13.00,2013-06-02 21:09:00,
2013-06-02 17:14:00,80.6,72.3,30.02,SSW,196,10.0,13.0,76,0.00,,SKC,0.00,VWS V13.00,2013-06-02 21:14:00,
2013-06-02 17:18:00,80.5,72.2,30.02,SSW,200,8.0,14.0,76,0.00,,SKC,0.00,VWS V13.00,2013-06-02 21:18:00,
2013-06-02 17:23:00,80.4,72.2,30.01,SW,230,7.0,10.0,76,0.00,,SKC,0.00,VWS V13.00,2013-06-02 21:23:00,
2013-06-02 17:28:00,80.4,72.2,30.01,South,186,2.0,8.0,76,0.00,,SKC,0.00,VWS V13.00,2013-06-02 21:28:00,
2013-06-02 17:33:00,80.5,72.2,30.01,SSW,194,8.0,8.0,76,0.00,,SKC,0.00,VWS V13.00,2013-06-02 21:33:00,
2013-06-02 17:38:00,80.5,72.2,30.01,South,187,3.0,8.0,76,0.00,,SKC,0.00,VWS V13.00,2013-06-02 21:38:00,
2013-06-02 17:43:00,80.4,72.2,30.01,SSW,204,2.0,10.0,76,0.00,,SKC,0.00,VWS V13.00,2013-06-02 21:43:00,
2013-06-02 17:48:00,80.3,72.1,30.01,South,184,2.0,9.0,76,0.00,,SKC,0.00,VWS V13.00,2013-06-02 21:48:00,
2013-06-02 17:53:00,80.1,71.9,30.01,South,186,6.0,12.0,76,0.00,,SKC,0.00,VWS V13.00,2013-06-02 21:53:00,
2013-06-02 17:58:00,79.9,71.7,30.01,SE,136,4.0,12.0,76,0.00,,SKC,0.00,VWS V13.00,2013-06-02 21:58:00,
2013-06-02 18:03:00,79.7,71.5,30.00,SSE,148,5.0,13.0,76,0.00,,SKC,0.00,VWS V13.00,2013-06-02 22:03:00,
2013-06-02 18:09:00,79.4,71.6,30.00,SSW,196,3.0,13.0,77,0.00,,SKC,0.00,VWS V13.00,2013-06-02 22:09:00,
2013-06-02 18:14:00,79.1,70.9,30.00,SE,145,10.0,15.0,76,0.00,,SKC,0.00,VWS V13.00,2013-06-02 22:14:00,
2013-06-02 18:19:00,78.8,71.0,30.00,South,179,10.0,11.0,77,0.00,,SKC,0.00,VWS V13.00,2013-06-02 22:19:00,
2013-06-02 18:24:00,78.7,70.9,30.00,South,184,7.0,15.0,77,0.00,,SKC,0.00,VWS V13.00,2013-06-02 22:24:00,
2013-06-02 18:29:00,78.6,70.8,30.00,SSW,193,7.0,14.0,77,0.00,,SKC,0.00,VWS V13.00,2013-06-02 22:29:00,
2013-06-02 18:34:00,78.4,70.6,30.00,SSW,205,9.0,15.0,77,0.00,,SKC,0.00,VWS V13.00,2013-06-02 22:34:00,
2013-06-02 18:39:00,78.2,70.4,30.00,South,173,9.0,14.0,77,0.00,,SKC,0.00,VWS V13.00,2013-06-02 22:39:00,
2013-06-02 18:44:00,78.1,70.3,30.00,SSW,192,5.0,12.0,77,0.00,,SKC,0.00,VWS V13.00,2013-06-02 22:44:00,
2013-06-02 18:49:00,78.0,70.2,30.00,South,182,5.0,13.0,77,0.00,,SKC,0.00,VWS V13.00,2013-06-02 22:49:00,
2013-06-02 18:54:00,77.9,70.1,30.00,SSE,148,6.0,9.0,77,0.00,,SKC,0.00,VWS V13.00,2013-06-02 22:54:00,
2013-06-02 18:59:00,77.8,70.0,30.00,South,171,4.0,10.0,77,0.00,,SKC,0.00,VWS V13.00,2013-06-02 22:59:00,
2013-06-02 19:04:00,77.7,69.9,30.00,SSE,151,5.0,6.0,77,0.00,,SKC,0.00,VWS V13.00,2013-06-02 23:04:00,
2013-06-02 19:09:00,77.7,69.9,30.00,SSE,147,5.0,7.0,77,0.00,,SKC,0.00,VWS V13.00,2013-06-02 23:09:00,
2013-06-02 19:14:00,77.6,70.2,30.00,South,171,7.0,7.0,78,0.00,,SKC,0.00,VWS V13.00,2013-06-02 23:14:00,
2013-06-02 19:19:00,77.5,70.1,30.00,SE,133,2.0,11.0,78,0.00,,SKC,0.00,VWS V13.00,2013-06-02 23:19:00,
2013-06-02 19:24:00,77.5,70.1,30.01,SSE,156,5.0,9.0,78,0.00,,SKC,0.00,VWS V13.00,2013-06-02 23:24:00,
2013-06-02 19:29:00,77.4,70.0,30.01,SSE,168,4.0,12.0,78,0.00,,SKC,0.00,VWS V13.00,2013-06-02 23:29:00,
2013-06-02 19:34:00,77.3,69.9,30.01,South,180,5.0,10.0,78,0.00,,SKC,0.00,VWS V13.00,2013-06-02 23:34:00,
2013-06-02 19:39:00,77.2,69.8,30.01,South,188,9.0,12.0,78,0.00,,SKC,0.00,VWS V13.00,2013-06-02 23:39:00,
2013-06-02 19:44:00,77.1,69.7,30.01,SE,141,9.0,12.0,78,0.00,,SKC,0.00,VWS V13.00,2013-06-02 23:44:00,
2013-06-02 19:49:00,77.0,69.6,30.01,SE,146,8.0,11.0,78,0.00,,SKC,0.00,VWS V13.00,2013-06-02 23:49:00,
2013-06-02 19:54:00,77.0,69.6,30.01,South,191,3.0,10.0,78,0.00,,SKC,0.00,VWS V13.00,2013-06-02 23:54:00,
2013-06-02 19:59:00,76.9,69.5,30.01,SSE,155,5.0,11.0,78,0.00,,SKC,0.00,VWS V13.00,2013-06-02 23:59:00,
2013-06-02 20:04:00,76.8,69.4,30.01,South,186,6.0,13.0,78,0.00,,SKC,0.00,VWS V13.00,2013-06-03 00:04:00,
2013-06-02 20:09:00,76.8,69.4,30.02,SE,136,9.0,11.0,78,0.00,,SKC,0.00,VWS V13.00,2013-06-03 00:09:00,
2013-06-02 20:14:00,76.8,69.8,30.02,South,188,4.0,10.0,79,0.00,,SKC,0.00,VWS V13.00,2013-06-03 00:14:00,
2013-06-02 20:19:00,76.7,69.7,30.02,SSE,164,1.0,9.0,79,0.00,,SKC,0.00,VWS V13.00,2013-06-03 00:19:00,
2013-06-02 20:24:00,76.7,69.7,30.02,South,169,9.0,11.0,79,0.00,,SKC,0.00,VWS V13.00,2013-06-03 00:24:00,
2013-06-02 20:29:00,76.6,69.6,30.02,South,184,7.0,11.0,79,0.00,,SKC,0.00,VWS V13.00,2013-06-03 00:29:00,
2013-06-02 20:34:00,76.5,69.5,30.02,South,182,7.0,11.0,79,0.00,,SKC,0.00,VWS V13.00,2013-06-03 00:34:00,
2013-06-02 20:39:00,76.5,69.5,30.02,SSE,158,8.0,9.0,79,0.00,,SKC,0.00,VWS V13.00,2013-06-03 00:39:00,
2013-06-02 20:44:00,76.4,69.4,30.02,SSE,152,4.0,9.0,79,0.00,,SKC,0.00,VWS V13.00,2013-06-03 00:44:00,
2013-06-02 20:49:00,76.3,69.3,30.02,SSE,166,5.0,10.0,79,0.00,,SKC,0.00,VWS V13.00,2013-06-03 00:49:00,
2013-06-02 20:54:00,76.2,69.2,30.02,South,184,7.0,9.0,79,0.00,,SKC,0.00,VWS V13.00,2013-06-03 00:54:00,
2013-06-02 20:59:00,76.2,69.2,30.03,South,188,9.0,10.0,79,0.00,,SKC,0.00,VWS V13.00,2013-06-03 00:59:00,
2013-06-02 21:04:00,76.2,69.6,30.03,SE,140,8.0,12.0,80,0.00,,SKC,0.00,VWS V13.00,2013-06-03 01:04:00,
2013-06-02 21:09:00,76.1,69.1,30.03,SSE,161,2.0,8.0,79,0.00,,SKC,0.00,VWS V13.00,2013-06-03 01:09:00,
2013-06-02 21:14:00,76.1,69.1,30.03,SSW,202,2.0,8.0,79,0.00,,SKC,0.00,VWS V13.00,2013-06-03 01:14:00,
2013-06-02 21:19:00,76.1,69.1,30.03,SE,140,4.0,9.0,79,0.00,,SKC,0.00,VWS V13.00,2013-06-03 01:19:00,
2013-06-02 21:24:00,76.0,69.4,30.03,South,175,2.0,7.0,80,0.00,,SKC,0.00,VWS V13.00,2013-06-03 01:24:00,
2013-06-02 21:29:00,75.9,69.3,30.03,SSE,150,6.0,9.0,80,0.00,,SKC,0.00,VWS V13.00,2013-06-03 01:29:00,
2013-06-02 21:34:00,75.8,69.2,30.03,South,171,4.0,8.0,80,0.00,,SKC,0.00,VWS V13.00,2013-06-03 01:34:00,
2013-06-02 21:39:00,75.8,69.2,30.02,SSE,157,2.0,7.0,80,0.00,,SKC,0.00,VWS V13.00,2013-06-03 01:39:00,
2013-06-02 21:44:00,75.7,69.1,30.02,SSW,194,3.0,6.0,80,0.00,,SKC,0.00,VWS V13.00,2013-06-03 01:44:00,
2013-06-02 21:49:00,75.7,69.1,30.02,South,171,2.0,7.0,80,0.00,,SKC,0.00,VWS V13.00,2013-06-03 01:49:00,
2013-06-02 21:54:00,75.7,69.1,30.02,South,175,11.0,11.0,80,0.00,,SKC,0.00,VWS V13.00,2013-06-03 01:54:00,
2013-06-02 21:59:00,75.6,69.0,30.02,SSW,193,8.0,9.0,80,0.00,,SKC,0.00,VWS V13.00,2013-06-03 01:59:00,
2013-06-02 22:04:00,75.6,69.0,30.02,SSW,198,5.0,8.0,80,0.00,,SKC,0.00,VWS V13.00,2013-06-03 02:04:00,
2013-06-02 22:09:00,75.5,68.9,30.02,SSW,198,6.0,12.0,80,0.00,,SKC,0.00,VWS V13.00,2013-06-03 02:09:00,
2013-06-02 22:14:00,75.5,68.9,30.02,South,169,0.0,10.0,80,0.00,,SKC,0.00,VWS V13.00,2013-06-03 02:14:00,
2013-06-02 22:19:00,75.5,68.9,30.02,South,170,8.0,11.0,80,0.00,,SKC,0.00,VWS V13.00,2013-06-03 02:19:00,
2013-06-02 22:24:00,75.5,68.9,30.02,SSW,192,5.0,10.0,80,0.00,,SKC,0.00,VWS V13.00,2013-06-03 02:24:00,
2013-06-02 22:29:00,75.5,68.9,30.01,SSW,199,4.0,11.0,80,0.00,,SKC,0.00,VWS V13.00,2013-06-03 02:29:00,
2013-06-02 22:34:00,75.5,68.9,30.01,SSE,155,2.0,14.0,80,0.00,,SKC,0.00,VWS V13.00,2013-06-03 02:34:00,
2013-06-02 22:39:00,75.5,68.9,30.01,South,173,8.0,10.0,80,0.00,,SKC,0.00,VWS V13.00,2013-06-03 02:39:00,
2013-06-02 22:44:00,75.4,68.8,30.01,South,182,8.0,11.0,80,0.00,,SKC,0.00,VWS V13.00,2013-06-03 02:44:00,
2013-06-02 22:49:00,75.5,68.9,30.00,SE,133,7.0,12.0,80,0.00,,SKC,0.00,VWS V13.00,2013-06-03 02:49:00,
2013-06-02 22:54:00,75.5,68.9,30.00,SSE,153,6.0,16.0,80,0.00,,SKC,0.00,VWS V13.00,2013-06-03 02:54:00,
2013-06-02 22:59:00,75.5,68.9,30.00,SSE,160,5.0,14.0,80,0.00,,SKC,0.00,VWS V13.00,2013-06-03 02:59:00,
2013-06-02 23:04:00,75.5,69.3,30.01,South,178,9.0,10.0,81,0.00,,SKC,0.00,VWS V13.00,2013-06-03 03:04:00,
2013-06-02 23:09:00,75.4,69.2,30.01,SSW,197,6.0,11.0,81,0.00,,SKC,0.00,VWS V13.00,2013-06-03 03:09:00,
2013-06-02 23:14:00,75.4,69.2,30.01,South,187,3.0,11.0,81,0.00,,SKC,0.00,VWS V13.00,2013-06-03 03:14:00,
2013-06-02 23:19:00,75.4,69.2,30.01,SSE,161,4.0,12.0,81,0.00,,SKC,0.00,VWS V13.00,2013-06-03 03:19:00,
2013-06-02 23:24:00,75.4,69.2,30.01,South,189,6.0,10.0,81,0.00,,SKC,0.00,VWS V13.00,2013-06-03 03:24:00,
2013-06-02 23:29:00,75.4,69.2,30.01,SSE,147,8.0,10.0,81,0.00,,SKC,0.00,VWS V13.00,2013-06-03 03:29:00,
2013-06-02 23:34:00,75.4,69.2,30.01,SSW,200,3.0,13.0,81,0.00,,SKC,0.00,VWS V13.00,2013-06-03 03:34:00,
2013-06-02 23:39:00,75.3,69.1,30.01,SSW,209,8.0,13.0,81,0.00,,SKC,0.00,VWS V13.00,2013-06-03 03:39:00,
2013-06-02 23:44:00,75.3,69.1,30.01,SSE,168,8.0,13.0,81,0.00,,SKC,0.00,VWS V13.00,2013-06-03 03:44:00,
2013-06-02 23:49:00,75.3,69.1,30.01,SSW,199,4.0,10.0,81,0.00,,SKC,0.00,VWS V13.00,2013-06-03 03:49:00,
2013-06-02 23:54:00,75.2,69.0,30.01,SSE,153,2.0,7.0,81,0.00,,SKC,0.00,VWS V13.00,2013-06-03 03:54:00,
2013-06-02 23:59:00,75.2,69.0,30.01,SSW,204,6.0,13.0,81,0.00,,SKC,0.00,VWS V13.00,2013-06-03 03:59:00,